Regional Weather Roundup
Issued by NWS Charleston, SC

Current Version | Previous Version | Graphics & Text | Print | Product List | Glossary On
Versions: 1 2 3 4 5 6 7 8 9 10 11 12 13 14 15 16 17 18 19 20 21 22 23 24 25 26 27 28 29 30 31 32 33 34 35 36 37 38 39 40 41 42 43 44 45 46 47 48 49 50
000
ASUS42 KCHS 120613
RWRCHS

REGIONAL WEATHER ROUNDUP
NATIONAL WEATHER SERVICE CHARLESTON SC
100 AM EST FRI FEB 12 2016

NOTE: "FAIR" INDICATES FEW OR NO CLOUDS BELOW 12,000 FEET WITH NO
SIGNIFICANT WEATHER AND/OR OBSTRUCTIONS TO VISIBILITY.

NOT ALL STATIONS ARE QUALITY CONTROLLED BY THE NATIONAL
WEATHER SERVICE. USE DATA WITH CAUTION...ESPECIALLY
DEWPOINT OBSERVATIONS.

SCZ027-030-031-034>040-042>050-120700-
...SOUTHEAST SOUTH CAROLINA...

CITY           SKY/WX    TMP DP  RH WIND       PRES   REMARKS
N CHARLESTON   MOCLDY    45  36  70 E5        30.20F
6HR MIN TEMP:  39; 6HR MAX TEMP:  46;

WATERFRONT PRK   N/A     49  44  83 E6        30.06S
MOUNT PLEASANT CLOUDY    45  39  81 CALM      30.21S
JOHNS ISLAND   CLOUDY    48  43  81 E3        30.20F
PINOPOLIS        N/A     45  36  70 VRB3      30.11F
MONCKS CORNER  CLOUDY    41  30  65 CALM      30.21S
SUMMERVILLE    CLOUDY    43  36  75 CALM      30.22S
BEAUFORT MCAS  CLOUDY    46  41  82 NE3       30.19F
6HR MIN TEMP:  40; 6HR MAX TEMP:  46;

BEAUFORT ARPT  CLOUDY    46  43  87 E3        30.19F
HILTON HEAD IS PTCLDY    48  46  93 N3        30.20F
WALTERBORO     CLOUDY    45  36  70 CALM      30.21F
ALLENDALE      MOCLDY    43  36  75 CALM      30.18F

...SOUTHERN MIDLANDS AND PEE DEE...

CITY           SKY/WX    TMP DP  RH WIND       PRES   REMARKS
GEORGETOWN     CLOUDY    41  37  87 NE3       30.23F
KINGSTREE      CLOUDY    39  32  75 CALM      30.23F
ORANGEBURG     CLOUDY    44  32  62 NE3       30.21S
6HR MIN TEMP:  39; 6HR MAX TEMP:  45;

BARNWELL       CLOUDY    45  36  70 CALM      30.20F
AIKEN          CLOUDY    39  30  70 CALM      30.22F
MANNING        CLOUDY    41  30  65 CALM      30.22F
COLUMBIA       PTCLDY    41  25  53 E3        30.20F
6HR MIN TEMP:  35; 6HR MAX TEMP:  46;

SUMTER         CLOUDY    36  29  75 NE6       30.19F WCI  31
6HR MIN TEMP:  33; 6HR MAX TEMP:  42;

FLORENCE       CLEAR     33  27  78 CALM      30.24F
6HR MIN TEMP:  31; 6HR MAX TEMP:  40;

MYRTLE BEACH   CLOUDY    45  32  61 E6        30.26F
N MYRTLE BEACH CLOUDY    39  34  82 NE5       30.25F WCI  36
6HR MIN TEMP:  32; 6HR MAX TEMP:  41;


$$

GAZ063-065-086>088-099>101-113>116-118-119-134>141-150-120700-
...SOUTHEAST GEORGIA...

CITY           SKY/WX    TMP DP  RH WIND       PRES   REMARKS
SAVANNAH ARPT  CLEAR     40  37  89 CALM      30.19F
6HR MIN TEMP:  40; 6HR MAX TEMP:  49;

HUNTER AAF     CLEAR     42  42 100 SE1       30.16F
6HR MIN TEMP:  42; 6HR MAX TEMP:  48;

FORT STEWART   CLEAR     41  38  92 CALM      30.16F
6HR MIN TEMP:  40; 6HR MAX TEMP:  51;

STATESBORO     PTCLDY    44  36  73 CALM      30.18F
SYLVANIA       MOCLDY    42  38  87 CALM      30.19F
CLAXTON        FAIR      41  40  98 CALM      30.18F

...CSRA...CENTRAL AND FAR SOUTHEAST GEORGIA...

CITY           SKY/WX    TMP DP  RH WIND       PRES   REMARKS
THOMSON        MOCLDY    39  36  87 CALM      30.22F
AUGUSTA-BUSH   CLOUDY    39  34  82 CALM      30.19F
6HR MIN TEMP:  34; 6HR MAX TEMP:  46;

AUGUSTA-DANIEL CLOUDY    47  26  44 E3        30.19F
SWAINSBORO     FAIR      39  34  81 CALM      30.18F
VIDALIA        CLEAR     43  37  81 CALM      30.17F
EASTMAN        MOCLDY    40  40 100 CALM      30.19F
HAZLEHURST     CLOUDY    56  52  86 SW7       30.16F
ALMA           CLOUDY    52  50  93 CALM      30.18F
6HR MIN TEMP:  51; 6HR MAX TEMP:  57;

WAYCROSS       CLOUDY    56  55  95 SW7       30.19S
JESUP          CLOUDY    55  52  88 SW5       30.19S
BAXLEY         CLOUDY    55  54  94 SW5       30.17F
BRUNSWICK      CLOUDY    54  50  87 SW3       30.21S
SAINT SIMONS   CLOUDY    53  49  86 SW6       30.20F
6HR MIN TEMP:  52; 6HR MAX TEMP:  55;


$$

SCZ027-028-034-036>038-045-046-048>050-GAZ119-141-120700-
...LAKE AND SUPPLEMENTAL COASTAL OBSERVATIONS...

STATION/POSITION TIME  TEMP    WIND        PRES    WAVE   SWELL
                       AIR SEA DIR/SP/G            HT/PER HT/PER/DIR
                 (UTC) (F)     (DEG/KT/KT) (MB)    (FT/S) (FT/S/D)
WINYAH BAY       0445   48     130/  6     1023.0
LAKE MURRAY      0500   43      90/  7/ 10 1022.4S
ACE BASIN NERRS  NOT AVBL
FORT PULASKI     0506   49 50     CALM     1022.6F
SAPELO ISLAND    0500   50     200/  7     1022.0S

$$

ANZ835-935-AMZ111-154-330-350-352-354-370-450-454-472-120700-
...C-MAN AND BUOY OBSERVATIONS...

STATION/POSITION TIME  TEMP    WIND        PRES    WAVE   SWELL
                       AIR SEA DIR/SP/G            HT/PER HT/PER/DIR
                 (UTC) (F)     (DEG/KT/KT) (MB)    (FT/S) (FT/S/D)
BUOY 41004       0550   56 69   70/ 10/ 12 1022.5F   1/ 5   2/ 5
BUOY 41008       0550   55 53  220/ 14/ 17 1022.4F   3/ 5
FOLLY BEACH CMAN 0600   50      90/  9/ 10 1022.7F
CAPERS NEARSHORE 0508   51      90/ 12/ 14 1022.6F
FRIPP NEARSHORE  0500   53     110/ 10/ 12 1021.4F


STATION/POSITION TIME  TEMP    WIND        PRES    WAVE   SWELL
                       AIR SEA DIR/SP/G            HT/PER HT/PER/DIR
                 (UTC) (F)     (DEG/KT/KT) (MB)    (FT/S) (FT/S/D)
5E ST. MARYS GA  NOT AVBL
FRYING PAN BUOY  0500   47 57   80/  6/ 10 1025.3F
BUOY 41025       0550   40 61  350/ 10/ 12 1026.5R   3/ 7   3/ 10/ 7
CAPE LOOKOUT NC  NOT AVBL
BUOY 41002       0550   56 68  320/ 14/ 19   N/A     7/ 8   5/320/ 8
BUOY 41010       0520   65 72              1025.4F
ST AUGUSTINE FL  0600   54 57  240/  5/  8 1024.4F


$$




USA.gov is the U.S. government's official web portal to all federal, state and local government web resources and services.